Carlsbad, CA

9:01 PM PST on February 23, 2017 (GMT -0800)
McClellan-Palomar

Weather History for KCRQ - November, 2013

Change the Weather History Date:

Wednesday, November 20, 2013

  Actual Average Record
Temperature  
Mean Temperature 60 °F -  
Max Temperature 64 °F 64 °F 91 °F (2002)
Min Temperature 57 °F 48 °F 48 °F (2008)
Degree Days  
Heating Degree Days 4    
Growing Degree Days 10 (Base 50)    
Moisture  
Dew Point 54 °F    
Average Humidity 79    
Maximum Humidity 100    
Minimum Humidity 58    
Precipitation  
Precipitation 0.18 in - - ()
Sea Level Pressure  
Sea Level Pressure 29.93 in    
Wind  
Wind Speed 4 mph (SSE)    
Max Wind Speed 10 mph    
Max Gust Speed -    
Visibility 8 miles    
Events Rain    
Averages and records for this station are not official NWS values.
T = Trace of Precipitation, MM = Missing Value Source: NWS Daily Summary

Daily Weather History Graph

Daily Weather History Graph

Search for Another Location

Airport or City:

Trip Planner

Search our weather history database for the weather conditions in past years. The results will help you decide how hot, cold, wet, or windy it might be!

Date:

Astronomy

Nov. 20, 2013 Rise Set
Actual Time 6:24 AM PST 4:44 PM PST
Civil Twilight 5:58 AM PST 5:11 PM PST
Nautical Twilight 5:28 AM PST 5:41 PM PST
Astronomical Twilight 4:58 AM PST 6:10 PM PST
Moon 7:31 PM PST (11/20) 8:53 AM PST (11/20)
Length of Visible Light 11h 12m
Length of Day
10h 19m
Waning Gibbous, 91% of the Moon is Illuminated
Nov 20
Waning Gibbous
Nov 25
Last Quarter
Dec 2
New
Dec 9
First Quarter
Dec 17
Full

Hourly Weather History & Observations

Time (PST) Temp. Dew Point Humidity Pressure Visibility Wind Dir Wind Speed Gust Speed Precip Events Conditions
12:01 AM 60.8 °F 53.6 °F 77% 29.97 in 10.0 mi ESE 3.5 mph - N/A   Mostly Cloudy
12:16 AM 60.8 °F 53.6 °F 77% 29.96 in 10.0 mi Calm Calm - N/A   Overcast
12:53 AM 60.1 °F 52.0 °F 75% 29.96 in 10.0 mi Calm Calm - N/A   Overcast
1:05 AM 60.8 °F 51.8 °F 72% 29.97 in 10.0 mi Calm Calm - N/A   Overcast
1:53 AM 59.0 °F 52.0 °F 78% 29.95 in 10.0 mi SE 3.5 mph - N/A   Overcast
2:53 AM 60.1 °F 52.0 °F 75% 29.95 in 10.0 mi SE 3.5 mph - N/A   Overcast
3:27 AM 60.8 °F 51.8 °F 72% 29.94 in 10.0 mi SSE 4.6 mph - N/A   Overcast
3:50 AM 60.8 °F 51.8 °F 72% 29.94 in 10.0 mi SE 4.6 mph - N/A   Overcast
3:53 AM 60.1 °F 52.0 °F 75% 29.94 in 10.0 mi SE 4.6 mph - N/A   Overcast
4:31 AM 60.8 °F 51.8 °F 72% 29.94 in 10.0 mi Calm Calm - N/A   Overcast
4:53 AM 60.1 °F 52.0 °F 75% 29.94 in 10.0 mi SE 3.5 mph - N/A   Overcast
5:53 AM 60.1 °F 53.1 °F 78% 29.94 in 10.0 mi SE 3.5 mph - N/A   Overcast
6:53 AM 60.1 °F 52.0 °F 75% 29.95 in 10.0 mi SE 3.5 mph - N/A   Overcast
7:53 AM 61.0 °F 52.0 °F 72% 29.97 in 10.0 mi SSE 4.6 mph - N/A   Mostly Cloudy
8:04 AM 60.8 °F 51.8 °F 72% 29.97 in 10.0 mi SE 4.6 mph - N/A   Overcast
8:53 AM 63.0 °F 53.1 °F 70% 29.96 in 10.0 mi SE 3.5 mph - N/A   Mostly Cloudy
9:53 AM 64.0 °F 52.0 °F 65% 29.97 in 10.0 mi SW 5.8 mph - N/A   Overcast
10:53 AM 64.9 °F 52.0 °F 63% 29.95 in - North - - 0.13 in   Unknown
11:53 AM 64.9 °F 50.0 °F 58% 29.93 in 10.0 mi SSW 8.1 mph - N/A   Clear
12:53 PM 64.0 °F 53.1 °F 67% 29.90 in 10.0 mi SW 10.4 mph - N/A   Clear
1:53 PM 64.0 °F 54.0 °F 70% 29.90 in 10.0 mi West 6.9 mph - N/A   Partly Cloudy
2:53 PM 63.0 °F 53.1 °F 70% 29.89 in 10.0 mi West 6.9 mph - N/A   Scattered Clouds
3:53 PM 63.0 °F 54.0 °F 72% 29.90 in 10.0 mi Variable 3.5 mph - N/A   Partly Cloudy
4:53 PM 62.1 °F 54.0 °F 75% 29.91 in 10.0 mi West 3.5 mph - N/A   Mostly Cloudy
5:53 PM 61.0 °F 55.0 °F 81% 29.91 in 10.0 mi SSW 3.5 mph - N/A   Overcast
6:53 PM 61.0 °F 55.0 °F 81% 29.91 in 10.0 mi SSE 4.6 mph - N/A   Overcast
7:42 PM 60.8 °F 55.4 °F 82% 29.91 in 10.0 mi SSE 3.5 mph - N/A   Overcast
7:53 PM 61.0 °F 55.0 °F 81% 29.91 in 10.0 mi SSE 4.6 mph - N/A   Overcast
8:53 PM 61.0 °F 55.9 °F 83% 29.92 in 6.0 mi SSE 4.6 mph - 0.00 in Rain Light Rain
9:00 PM 60.8 °F 55.4 °F 82% 29.92 in 4.0 mi SSE 4.6 mph - 0.00 in Rain Light Rain
9:53 PM 60.1 °F 57.0 °F 90% 29.91 in 5.0 mi Calm Calm - 0.00 in Rain Light Rain
10:13 PM 59.0 °F 57.2 °F 94% 29.91 in 3.0 mi SE 4.6 mph - 0.01 in Rain Light Rain
10:21 PM 59.0 °F 57.2 °F 94% 29.91 in 2.5 mi SSE 3.5 mph - 0.01 in Rain Light Rain
10:31 PM 59.0 °F 57.2 °F 94% 29.91 in 2.5 mi South 3.5 mph - 0.02 in Rain Light Rain
10:42 PM 59.0 °F 57.2 °F 94% 29.91 in 2.5 mi SSE 4.6 mph - 0.03 in Rain Light Rain
10:53 PM 59.0 °F 57.0 °F 93% 29.91 in 2.0 mi SE 5.8 mph - 0.03 in Rain Light Rain
11:06 PM 57.2 °F 57.2 °F 100% 29.90 in 2.5 mi SE 8.1 mph - 0.01 in Rain Light Rain
11:13 PM 57.2 °F 57.2 °F 100% 29.90 in 5.0 mi SE 6.9 mph - 0.01 in   Overcast
11:53 PM 57.9 °F 57.0 °F 97% 29.89 in 3.0 mi SE 6.9 mph - 0.02 in Rain Light Rain